673  
NZUS93 KARX 201210  
HRRWXR  
 
CURRENT HOURLY OBSERVATIONS ACROSS  
MUCH OF THE UPPER MISSISSIPPI VALLEY  
NATIONAL WEATHER SERVICE LA CROSSE WI  
700 AM CDT THU JUL 20 2017  
 
   
..SOUTHEAST MINNESOTA
 
 
 
CITY SKY/WX TMP DP RH WIND PRES REMARKS  
ROCHESTER CLOUDY 69 68 96 SE6 30.01R  
ROCHESTER/MAYO PTSUNNY 69 69 100 SE7 30.00R  
WINONA PTSUNNY 70 70 100 CALM 29.99R  
AUSTIN CLOUDY 72 68 88 E10 29.99R  
ALBERT LEA CLOUDY 70 70 100 NE5 29.98R FOG  
DODGE CENTER CLOUDY 70 66 88 SE5 30.00R  
PRESTON CLOUDY 67 65 93 SE5 30.00S  
OWATONNA CLOUDY 70 68 94 CALM 30.00R  
FARIBAULT CLOUDY 70 68 94 NE3 30.00R FOG  

 
   
..ELSEWHERE IN MINNESOTA
 
 
 
CITY SKY/WX TMP DP RH WIND PRES REMARKS  
MINNEAPOLIS CLOUDY 70 67 90 S3 30.00R FOG  
INTNL FALLS PTSUNNY 62 60 93 W5 29.96R FOG  
DULUTH CLOUDY 64 63 96 NW8 29.96R  
RED WING CLOUDY 70 68 94 CALM 29.98R FOG  
REDWOOD FALLS CLOUDY 67 65 93 N7 29.98R FOG  
MANKATO CLOUDY 69 68 96 NE9 29.99R  
WORTHINGTON MOCLDY 68 67 96 NE7 30.01S  
FAIRMONT PTCLDY 68 67 96 N8 30.00R FOG  

 
   
..SOUTHWEST WISCONSIN
 
 
 
CITY SKY/WX TMP DP RH WIND PRES REMARKS  
LA CROSSE CLOUDY 71 68 90 S7 29.97S  
PRAIRIE DU CHI CLOUDY 67 66 96 SE5 29.99S  
BOSCOBEL CLOUDY 70 67 90 CALM 29.99F  
LONE ROCK CLOUDY 68 66 93 CALM 30.00S  
PLATTEVILLE CLOUDY 69 69 100 SE7 30.01F  
FORT MC COY CLOUDY 65 65 99 CALM 29.99S  
CAMP DOUGLAS PTSUNNY 68 68 100 CALM 30.00R  
MAUSTON-NEW LI CLOUDY 68 67 96 CALM 30.00R  
VIROQUA PTSUNNY 67 67 100 S7 30.00F  
WIS DELLS CLOUDY 67 65 94 S5 29.99R  

 
   
..ELSEWHERE IN WISCONSIN
 
 
 
CITY SKY/WX TMP DP RH WIND PRES REMARKS  
MILWAUKEE LGT RAIN 70 68 93 SW9 30.03F  
MADISON CLOUDY 68 66 93 CALM 29.98F  
GREEN BAY PTSUNNY 71 69 93 W9 29.97S  
EAU CLAIRE FOG 68 68 100 CALM 29.99S VSB 1/4  
BLACK RVR FLS PTSUNNY 69 69 100 CALM 29.99R  
MEDFORD CLOUDY 65 64 96 W5 30.01R  
WAUSAU CLOUDY 69 66 90 W8 29.99R  
WIS RAPIDS CLOUDY 69 68 96 SW5 30.01R  
MARSHFIELD CLOUDY 68 65 90 W7 30.00R  
RICE LAKE FOG 60 59 97 CALM 30.01R VSB 1/2  

 
   
..NORTHEAST IOWA
 
 
 
CITY SKY/WX TMP DP RH WIND PRES REMARKS  
WATERLOO MOSUNNY 75 73 93 NE6 29.95R FOG  
DUBUQUE CLOUDY 68 66 93 E9 30.02F  
DECORAH CLOUDY 68 66 94 SE12G18 29.98F  
MASON CITY PTSUNNY 74 71 91 N8 29.98R  
CHARLES CITY CLOUDY 73 73 100 E10 29.96S  
OELWEIN PTSUNNY 73 73 100 E8 29.98F  

 
   
..ELSEWHERE IN IOWA
 
 
 
CITY SKY/WX TMP DP RH WIND PRES REMARKS  
DES MOINES MOCLDY 81 71 71 SW15 29.93F  
IOWA CITY PTSUNNY 80 74 81 SW5 29.96S  
FORT DODGE PTCLDY 75 72 88 N3 29.98R  
MARSHALLTOWN PTSUNNY 77 74 90 NW3 29.95R  
CEDAR RAPIDS PTSUNNY 77 76 96 CALM 29.96R  

 
   
..NORTHERN ILLINOIS
 
 
 
CITY SKY/WX TMP DP RH WIND PRES REMARKS  
CHICAGO-OHARE TSTM 70 68 93 SE7 30.04F  
CHICAGO-MIDWAY TSTM 71 69 93 NE6 30.05F FOG  
MOLINE CLOUDY 80 71 74 VRB3 29.97R  
ROCKFORD TSTM 71 66 84 SE10 30.02F  
PEORIA CLOUDY 74 72 93 SW7 30.00F  

 
 
NOTE: "FAIR" INDICATES FEW OR NO CLOUDS BELOW 12,000 FEET WITH NO  
SIGNIFICANT WEATHER AND/OR OBSTRUCTIONS TO VISIBILITY. WIND  
SPEEDS ARE IN MILES-PER-HOUR.  
 
 
CLICK HERE TO GO TO PREVIOUS BULLETINS.

The Nexlab WI Page
The Nexlab IA Page
The Nexlab MN Page Main Text Page